This is the latest recevied weather packets stored in our database for station/object WD7CGF. If no packets are shown the sender has not sent any weather packets the latest 10 day(s).
| Time | Temp. | Humidity | Pressure | Rain* | Wind** | Luminosity | Snow |
|---|---|---|---|---|---|---|---|
| 1777533505 | 6.67° C | 82% | 1021.2 hPa | 0 mm | - | - | - |
| 1777532909 | 6.67° C | 81% | 1021.3 hPa | 0 mm | - | - | - |
| 1777532314 | 7.22° C | 81% | 1021.3 hPa | 0 mm | - | - | - |
| 1777531697 | 7.22° C | 81% | 1021.3 hPa | 0 mm | - | - | - |
| 1777531104 | 7.22° C | 80% | 1021.2 hPa | 0 mm | - | - | - |
| 1777530493 | 7.78° C | 80% | 1021.1 hPa | 0 mm | - | - | - |
| 1777529909 | 7.78° C | 80% | 1021.1 hPa | 0 mm | - | - | - |
| 1777529300 | 8.33° C | 79% | 1021.1 hPa | 0 mm | - | - | - |
| 1777528693 | 8.33° C | 78% | 1021 hPa | 0 mm | - | - | - |
| 1777528102 | 8.89° C | 77% | 1021 hPa | 0 mm | - | - | - |
| 1777527514 | 8.89° C | 76% | 1020.8 hPa | 0 mm | - | - | - |
| 1777526906 | 8.89° C | 75% | 1020.8 hPa | 0 mm | - | - | - |
| 1777526314 | 9.44° C | 74% | 1020.8 hPa | 0 mm | - | - | - |
| 1777525697 | 10° C | 72% | 1020.8 hPa | 0 mm | - | - | - |
| 1777525107 | 10.56° C | 71% | 1020.7 hPa | 0 mm | - | - | - |
| 1777524497 | 11.11° C | 69% | 1020.7 hPa | 0 mm | - | - | - |
| 1777523909 | 11.11° C | 69% | 1020.7 hPa | 0 mm | - | - | - |
| 1777523298 | 11.67° C | 66% | 1020.6 hPa | 0 mm | - | - | - |
| 1777522702 | 12.22° C | 64% | 1020.6 hPa | 0 mm | - | - | - |
| 1777522110 | 12.78° C | 61% | 1020.4 hPa | 0 mm | - | - | - |
| 1777521496 | 13.33° C | 59% | 1020.1 hPa | 0 mm | - | - | - |
| 1777520902 | 13.89° C | 58% | 1020.1 hPa | 0 mm | - | - | - |
| 1777520297 | 15° C | 54% | 1020.7 hPa | 0 mm | - | - | - |
| 1777519706 | 15.56° C | 52% | 1020.5 hPa | 0 mm | - | - | - |
| 1777519114 | 16.11° C | 49% | 1020.5 hPa | 0 mm | - | - | - |
* Rain since midnight (hover to see other rain measurements)
** Current wind speed in m/s (hover to see current wind gust speed)